When you browse on this site, cookies collect data to enhance your experience and personalize the content and advertising you see.
Visit our Privacy Policy to learn more. By continuing to use the site, you agree to this use of cookies and data.
  • In Sweden
  • List of Countries
  • For 7 days
  • Water Temperature
  • Weather Map
  • Weather Widgets
  • user-avatar
    Login

    Hourly Weather Durres

    Today, 21 September, Saturday

    Time Temperature Precipitation Wind Pressure Humidity
    00:00 +17°C° 0 mm 6 mps 764 mmHg 41%
    01:00 +17°C° 0 mm 6 mps 765 mmHg 40%
    02:00 +16°C° 0 mm 6 mps 765 mmHg 40%
    03:00 +16°C° 0 mm 6 mps 765 mmHg 39%
    04:00 +16°C° 0 mm 6 mps 765 mmHg 38%
    05:00 +16°C° 0 mm 6 mps 765 mmHg 37%
    06:00 +17°C° 0 mm 5 mps 765 mmHg 36%
    07:00 +19°C° 0 mm 6 mps 765 mmHg 35%
    08:00 +21°C° 0 mm 5 mps 765 mmHg 31%
    09:00 +23°C° 0 mm 4 mps 765 mmHg 27%
    10:00 +27°C° 0 mm 4 mps 765 mmHg 22%
    11:00 +27°C° 0 mm 4 mps 765 mmHg 22%
    12:00 +28°C° 0 mm 4 mps 765 mmHg 22%
    13:00 +29°C° 0 mm 5 mps 765 mmHg 22%
    14:00 +28°C° 0 mm 5 mps 765 mmHg 25%
    15:00 +27°C° 0 mm 6 mps 764 mmHg 28%
    16:00 +26°C° 0 mm 6 mps 764 mmHg 30%
    17:00 +23°C° 0 mm 6 mps 765 mmHg 37%
    18:00 +22°C° 0 mm 6 mps 765 mmHg 44%
    19:00 +20°C° 0 mm 5 mps 765 mmHg 51%
    20:00 +19°C° 0 mm 4 mps 765 mmHg 52%
    21:00 +19°C° 0 mm 4 mps 765 mmHg 53%
    22:00 +19°C° 0 mm 3 mps 765 mmHg 54%
    23:00 +18°C° 0 mm 2 mps 765 mmHg 52%

    Tomorrow, 22 September, Sunday

    Time Temperature Precipitation Wind Pressure Humidity
    00:00 +18°C° 0 mm 2 mps 765 mmHg 50%
    01:00 +19°C° 0 mm 1 mps 765 mmHg 48%
    02:00 +19°C° 0 mm 1 mps 765 mmHg 48%
    03:00 +19°C° 0 mm 1 mps 765 mmHg 49%
    04:00 +18°C° 0 mm 1 mps 764 mmHg 49%
    05:00 +19°C° 0 mm 1 mps 764 mmHg 48%
    06:00 +20°C° 0 mm 1 mps 764 mmHg 48%
    07:00 +21°C° 0 mm 1 mps 764 mmHg 47%
    08:00 +23°C° 0 mm 1 mps 764 mmHg 42%
    09:00 +25°C° 0 mm 1 mps 764 mmHg 38%
    10:00 +27°C° 0 mm 1 mps 764 mmHg 34%
    11:00 +28°C° 0 mm 1 mps 764 mmHg 34%
    12:00 +28°C° 0 mm 2 mps 764 mmHg 34%
    13:00 +29°C° 0 mm 2 mps 763 mmHg 34%
    14:00 +28°C° 0 mm 2 mps 763 mmHg 38%
    15:00 +27°C° 0 mm 2 mps 763 mmHg 42%
    16:00 +26°C° 0 mm 1 mps 762 mmHg 46%
    17:00 +25°C° 0 mm 1 mps 762 mmHg 50%
    18:00 +23°C° 0 mm 1 mps 762 mmHg 55%
    19:00 +21°C° 0 mm 2 mps 763 mmHg 59%
    20:00 +21°C° 0 mm 2 mps 763 mmHg 60%
    21:00 +20°C° 0 mm 2 mps 763 mmHg 62%
    22:00 +20°C° 0 mm 2 mps 763 mmHg 64%
    23:00 +20°C° 0 mm 2 mps 762 mmHg 64%

    Day after tomorrow, 23 September, Monday

    Time Temperature Precipitation Wind Pressure Humidity
    00:00 +20°C° 0 mm 2 mps 762 mmHg 64%
    01:00 +20°C° 0 mm 3 mps 762 mmHg 64%
    02:00 +19°C° 0 mm 3 mps 762 mmHg 63%
    03:00 +19°C° 0 mm 3 mps 762 mmHg 63%
    04:00 +19°C° 0 mm 3 mps 761 mmHg 63%
    05:00 +20°C° 0 mm 4 mps 761 mmHg 58%
    06:00 +21°C° 0 mm 4 mps 761 mmHg 54%
    07:00 +22°C° 0 mm 5 mps 761 mmHg 49%
    08:00 +23°C° 0 mm 4 mps 761 mmHg 45%
    09:00 +25°C° 0 mm 4 mps 761 mmHg 41%
    10:00 +26°C° 0 mm 4 mps 761 mmHg 37%
    11:00 +27°C° 0.1 mm 5 mps 760 mmHg 38%
    12:00 +28°C° 0.1 mm 5 mps 760 mmHg 40%
    13:00 +29°C° 0.1 mm 5 mps 759 mmHg 41%
    14:00 +29°C° 0.9 mm 6 mps 759 mmHg 47%
    15:00 +28°C° 0.9 mm 7 mps 758 mmHg 53%
    16:00 +28°C° 0.9 mm 8 mps 758 mmHg 59%
    17:00 +26°C° 3 mm 8 mps 758 mmHg 69%
    18:00 +24°C° 3 mm 8 mps 758 mmHg 79%
    19:00 +22°C° 3 mm 8 mps 758 mmHg 90%
    20:00 +22°C° 0.3 mm 7 mps 758 mmHg 88%
    21:00 +22°C° 0.3 mm 7 mps 758 mmHg 86%
    22:00 +22°C° 0.3 mm 6 mps 758 mmHg 84%
    23:00 +22°C° 1.6 mm 6 mps 757 mmHg 82%

    24 September, Tuesday

    Time Temperature Precipitation Wind Pressure Humidity
    00:00 +22°C° 1.6 mm 6 mps 757 mmHg 81%
    01:00 +22°C° 1.6 mm 5 mps 757 mmHg 79%
    02:00 +22°C° 1.4 mm 5 mps 756 mmHg 79%
    03:00 +22°C° 1.4 mm 5 mps 756 mmHg 79%
    04:00 +22°C° 1.4 mm 5 mps 755 mmHg 79%
    05:00 +22°C° 0.4 mm 5 mps 755 mmHg 78%
    06:00 +22°C° 0.4 mm 5 mps 755 mmHg 77%
    07:00 +22°C° 0.4 mm 5 mps 755 mmHg 76%
    08:00 +24°C° 0.2 mm 6 mps 755 mmHg 70%
    09:00 +26°C° 0.2 mm 6 mps 755 mmHg 64%
    10:00 +28°C° 0.2 mm 6 mps 755 mmHg 57%
    11:00 +28°C° 0.6 mm 6 mps 755 mmHg 57%
    12:00 +28°C° 0.6 mm 7 mps 755 mmHg 57%
    13:00 +28°C° 0.6 mm 7 mps 754 mmHg 57%
    14:00 +27°C° 0.5 mm 8 mps 754 mmHg 61%
    15:00 +26°C° 0.5 mm 8 mps 754 mmHg 64%
    16:00 +24°C° 0.5 mm 8 mps 754 mmHg 67%
    17:00 +23°C° 0.2 mm 7 mps 754 mmHg 72%
    18:00 +22°C° 0.2 mm 6 mps 755 mmHg 77%
    19:00 +21°C° 0.2 mm 6 mps 755 mmHg 82%
    20:00 +21°C° 0 mm 5 mps 756 mmHg 83%
    21:00 +21°C° 0 mm 4 mps 756 mmHg 84%
    22:00 +20°C° 0 mm 4 mps 756 mmHg 85%
    23:00 +20°C° 0.1 mm 3 mps 756 mmHg 86%

    25 September, Wednesday

    Time Temperature Precipitation Wind Pressure Humidity
    00:00 +20°C° 0.1 mm 3 mps 756 mmHg 86%
    01:00 +19°C° 0.1 mm 3 mps 756 mmHg 87%
    02:00 +19°C° 0.3 mm 3 mps 756 mmHg 87%
    03:00 +19°C° 0.3 mm 3 mps 756 mmHg 87%
    04:00 +19°C° 0.3 mm 3 mps 756 mmHg 88%
    05:00 +19°C° 0.1 mm 3 mps 756 mmHg 85%
    06:00 +20°C° 0.1 mm 3 mps 756 mmHg 83%
    07:00 +20°C° 0.1 mm 3 mps 756 mmHg 80%
    08:00 +22°C° 0.1 mm 3 mps 756 mmHg 75%
    09:00 +24°C° 0.1 mm 3 mps 756 mmHg 70%
    10:00 +25°C° 0.1 mm 3 mps 756 mmHg 64%
    11:00 +26°C° 0 mm 3 mps 756 mmHg 63%
    12:00 +26°C° 0 mm 4 mps 756 mmHg 62%
    13:00 +26°C° 0 mm 4 mps 756 mmHg 61%
    14:00 +26°C° 0 mm 3 mps 756 mmHg 61%
    15:00 +25°C° 0 mm 3 mps 756 mmHg 62%
    16:00 +25°C° 0 mm 2 mps 756 mmHg 62%
    17:00 +24°C° 0 mm 2 mps 756 mmHg 67%
    18:00 +23°C° 0 mm 2 mps 756 mmHg 73%
    19:00 +22°C° 0 mm 1 mps 757 mmHg 78%
    20:00 +21°C° 0 mm 1 mps 757 mmHg 78%
    21:00 +20°C° 0 mm 2 mps 757 mmHg 77%
    22:00 +20°C° 0 mm 2 mps 757 mmHg 77%
    23:00 +20°C° 0 mm 2 mps 757 mmHg 77%

    26 September, Thursday

    Time Temperature Precipitation Wind Pressure Humidity
    00:00 +20°C° 0 mm 1 mps 757 mmHg 77%
    01:00 +20°C° 0 mm 1 mps 757 mmHg 76%
    02:00 +19°C° 0 mm 2 mps 757 mmHg 75%
    03:00 +19°C° 0 mm 3 mps 758 mmHg 73%
    04:00 +19°C° 0 mm 3 mps 758 mmHg 71%
    05:00 +20°C° 0 mm 3 mps 758 mmHg 67%
    06:00 +20°C° 0 mm 3 mps 758 mmHg 64%
    07:00 +21°C° 0 mm 3 mps 758 mmHg 60%
    08:00 +24°C° 0 mm 3 mps 758 mmHg 56%
    09:00 +25°C° 0 mm 2 mps 759 mmHg 53%
    10:00 +27°C° 0 mm 2 mps 759 mmHg 49%
    11:00 +28°C° 0 mm 2 mps 759 mmHg 47%
    12:00 +28°C° 0 mm 2 mps 759 mmHg 46%
    13:00 +29°C° 0 mm 2 mps 759 mmHg 44%
    14:00 +28°C° 0 mm 2 mps 759 mmHg 47%
    15:00 +28°C° 0 mm 2 mps 759 mmHg 50%
    16:00 +27°C° 0 mm 1 mps 758 mmHg 54%
    17:00 +26°C° 0 mm 2 mps 759 mmHg 58%
    18:00 +25°C° 0 mm 2 mps 759 mmHg 62%
    19:00 +23°C° 0 mm 2 mps 759 mmHg 67%
    20:00 +23°C° 0 mm 2 mps 759 mmHg 68%
    21:00 +23°C° 0 mm 2 mps 760 mmHg 69%
    22:00 +23°C° 0 mm 2 mps 760 mmHg 70%
    23:00 +21°C° 0 mm 2 mps 760 mmHg 70%
    Show more